Temperature
25 23 23 24 24 25 25 24 24 24 25 23 22 22 21 21 21 20 20 20 20 20 21 20 20 20 20 20 19 19 19 19 19 18 18 18 18 18 18 18 18 18 18 18
24 24 25 25 25 25 25 24 24 24 25 24 22 22 21 21 20 20 20 20 20 20 20 20 20 20 20 20 19 19 19 19 19 19 18 18 18 18 18 18 18 18 18 18
25 25 26 26 25 25 25 24 24 24 24 23 23 22 21 21 21 20 20 20 20 20 20 20 20 20 20 20 20 20 19 19 19 19 18 18 18 18 18 18 18 18 18 18
25 25 26 26 26 25 24 25 25 24 23 22 23 21 21 20 20 20 20 20 20 20 20 20 20 20 20 20 20 20 20 19 19 19 18 18 18 18 18 18 18 18 18 18
25 26 26 26 26 25 25 25 24 23 22 21 21 21 20 20 20 20 20 20 20 20 20 20 20 20 20 20 20 20 20 19 19 19 18 18 18 18 18 18 18 18 18 18
25 25 26 26 26 25 24 23 22 20 20 21 21 21 21 19 20 20 20 20 20 20 20 20 20 20 20 20 20 20 19 19 19 19 18 18 18 18 18 18 18 18 18 18
25 25 25 26 26 25 23 22 21 22 20 21 20 20 20 21 21 20 20 21 21 21 20 20 20 20 20 20 20 20 19 19 19 19 18 18 18 18 18 18 18 18 18 18
24 23 25 25 25 24 23 22 21 22 21 20 20 20 21 21 21 21 21 21 21 21 21 20 21 20 20 20 20 19 19 19 19 19 18 18 18 18 18 18 18 18 18 18
22 23 25 25 25 24 23 21 20 19 20 20 20 20 20 21 21 21 21 21 21 21 21 21 21 21 20 20 20 20 19 19 19 19 18 18 18 18 18 18 18 18 18 18
22 23 24 24 24 23 22 19 18 19 20 20 21 20 20 21 21 20 19 20 20 21 21 21 21 21 21 20 20 20 19 19 19 19 18 18 18 18 18 18 18 18 18 18
22 22 23 23 24 23 22 21 18 16 18 19 20 21 21 20 20 19 19 20 20 21 21 20 20 21 21 20 20 20 19 19 19 19 18 18 18 18 18 18 18 18 18 18
19 19 20 22 22 22 23 21 19 20 19 17 18 20 21 19 19 19 19 20 20 21 21 21 20 20 20 20 20 20 19 19 19 19 18 18 18 18 18 18 17 17 17 17
19 19 20 21 21 22 22 21 19 17 16 16 18 20 20 18 18 19 19 20 20 20 20 20 20 20 20 20 19 19 19 19 19 18 18 18 18 17 17 17 17 17 17 17
19 17 19 21 21 21 22 21 19 18 18 17 18 19 19 18 18 18 19 19 20 20 20 20 20 20 20 19 19 19 19 19 18 18 18 18 18 18 17 17 17 17 17 17
18 19 19 20 20 21 21 21 20 20 19 19 19 18 19 18 18 18 18 19 19 19 19 19 19 20 19 19 19 19 19 18 18 18 18 18 18 18 17 17 17 17 17 17
15 18 19 20 20 20 21 21 21 20 19 19 19 19 18 18 18 18 18 18 18 19 19 19 19 19 19 19 19 19 18 18 18 18 18 18 18 17 17 17 17 17 17 16
15 17 18 18 19 20 20 20 20 20 19 19 19 19 18 17 17 17 18 18 18 19 19 19 19 19 19 19 19 18 18 18 18 17 17 17 17 17 17 17 16 16 16 16
15 14 14 16 19 20 19 19 19 19 19 18 18 18 17 17 18 18 18 18 18 18 19 19 19 19 19 19 18 18 18 17 17 17 17 17 17 17 16 16 16 16 16 16
13 14 14 15 17 18 19 19 18 18 18 18 17 17 17 17 17 17 18 18 18 18 18 18 18 18 18 18 18 17 17 17 17 17 17 17 16 16 16 16 16 16 15 15
12 13 14 14 17 18 18 19 19 18 18 18 17 16 16 17 16 16 18 18 18 18 18 18 18 17 17 17 17 17 17 16 16 16 16 16 16 16 16 16 16 15 15 15
14 13 14 14 16 16 17 18 19 18 18 18 17 17 16 16 16 17 18 17 17 17 17 17 17 17 17 17 17 16 16 16 16 16 16 16 16 15 15 15 15 15 15 15
14 14 13 13 15 16 17 17 17 17 18 18 17 17 17 17 17 17 17 17 17 17 17 17 16 16 16 16 16 16 16 16 16 16 16 15 15 15 15 15 15 15 14 14
13 13 12 13 14 15 16 17 18 18 18 18 18 17 17 17 17 17 16 16 16 16 16 16 16 16 16 16 16 16 15 15 15 15 15 15 15 15 14 14 14 14 14 14
13 12 12 13 14 15 16 16 17 17 18 17 17 17 17 17 16 16 16 16 16 16 16 16 16 16 15 15 15 15 15 15 15 15 15 14 14 14 14 14 14 14 13 13
13 12 12 13 13 14 16 16 17 17 17 17 17 16 16 16 16 16 16 16 15 15 15 15 15 15 15 15 15 14 14 14 14 14 14 14 14 14 14 14 13 13 13 13
12 12 13 13 14 13 15 16 16 17 16 16 16 16 16 16 16 16 15 15 15 15 15 15 15 15 14 14 14 14 14 14 14 14 14 14 14 14 13 13 13 13 13 13
Wind_Speed
3 4 2 6 7 5 4 3 2 3 1 3 2 1 3 5 5 5 5 6 6 6 5 5 6 6 6 5 5 5 5 4 4 2 2 1 1 1 0 1 3 3 3 4
4 3 7 4 3 3 3 2 1 3 2 3 2 1 1 4 6 7 8 8 7 6 4 5 6 6 6 6 6 5 5 5 4 3 3 2 2 1 1 1 2 3 3 3
5 5 2 2 2 2 2 4 4 2 2 4 4 4 1 1 2 2 3 4 5 8 8 8 7 7 7 6 7 7 6 5 5 4 3 2 1 1 0 1 1 2 3 4
3 4 1 1 1 3 3 4 4 3 3 1 2 2 5 2 2 4 4 4 5 6 6 7 7 7 8 8 6 6 6 5 5 4 4 4 3 3 3 2 2 3 3 3
4 2 2 2 4 4 4 1 4 3 4 3 3 2 6 1 3 7 7 7 7 6 7 7 8 9 8 7 7 6 5 5 4 5 5 4 3 3 2 1 2 2 2 2
4 2 3 4 1 3 4 6 7 6 5 1 2 2 5 4 5 5 6 7 6 6 6 6 6 6 5 5 6 6 5 5 5 5 5 5 5 3 2 2 2 2 2 2
4 5 3 1 2 3 6 6 4 5 4 4 2 2 7 6 5 5 5 6 6 5 6 6 6 6 6 6 6 6 6 6 6 6 6 6 5 4 4 4 4 3 2 2
1 5 4 1 4 4 4 8 7 5 4 4 3 4 6 4 2 2 3 3 4 5 5 7 8 8 7 6 6 6 6 6 6 6 6 5 5 4 4 4 4 4 4 4
5 5 4 1 2 7 5 3 6 7 3 0 4 5 6 1 2 1 0 1 3 5 6 6 7 7 7 7 6 7 6 5 6 6 5 5 5 5 5 4 4 4 3 3
6 3 4 3 5 5 6 8 6 6 4 2 5 5 5 5 3 2 1 2 3 3 4 4 5 6 7 7 6 5 5 5 4 4 4 4 4 5 4 3 4 4 4 3
4 4 4 3 2 2 4 5 6 5 6 6 3 7 5 7 6 5 4 3 3 4 5 4 4 5 5 4 4 5 5 4 4 3 3 4 4 4 3 4 4 4 4 3
3 5 2 5 3 1 4 6 7 5 3 5 4 7 4 3 4 4 4 3 3 4 4 4 4 4 4 4 4 5 5 5 5 4 4 4 3 3 3 4 4 4 4 4
4 5 2 5 5 3 2 2 4 6 5 5 5 7 3 3 1 2 3 4 3 3 3 3 3 3 4 4 4 5 5 5 5 4 4 4 3 3 4 4 4 3 3 4
5 4 6 8 6 3 1 1 4 6 4 5 7 7 7 5 3 3 3 3 3 3 3 3 3 3 3 4 4 4 4 4 4 4 4 4 4 4 5 4 3 3 3 3
4 3 2 3 3 3 2 2 3 5 7 7 7 7 8 6 5 4 2 2 2 2 2 3 3 3 3 3 4 4 4 3 4 4 4 5 4 4 3 3 3 2 2 3
4 3 2 1 1 1 1 1 3 3 3 4 3 5 6 3 1 1 1 1 2 3 4 3 3 4 4 4 4 4 4 4 4 4 5 4 3 3 3 3 3 2 2 2
2 4 3 2 4 1 2 4 4 3 2 4 5 6 3 1 3 4 3 3 4 4 3 3 4 4 4 4 4 5 4 4 4 4 4 4 3 3 3 3 2 2 3 2
4 4 3 1 2 3 7 2 4 4 2 2 3 3 3 4 4 2 1 2 2 2 3 3 3 3 2 1 1 2 2 3 4 3 4 3 3 3 3 3 2 3 2 2
4 7 4 3 3 4 5 2 3 4 3 2 3 3 2 1 2 2 2 1 2 2 2 2 2 1 0 0 1 2 2 2 3 3 3 3 3 3 2 2 3 2 2 2
4 4 5 4 4 6 6 3 1 4 2 3 2 2 1 3 1 4 3 1 2 2 2 2 3 2 1 1 1 2 3 3 3 3 3 3 3 3 3 3 3 2 1 2
3 3 3 4 4 5 5 4 2 4 6 4 3 2 2 2 3 3 1 1 1 2 2 3 2 1 1 1 1 2 2 3 3 2 2 2 2 3 3 3 1 1 1 0
4 4 3 4 3 6 3 2 4 6 2 1 2 2 2 1 1 1 1 1 1 2 2 2 2 2 2 2 2 1 2 2 1 1 1 2 2 2 1 1 1 1 1 0
4 6 5 6 6 5 3 3 2 2 2 2 2 1 2 1 0 1 1 1 1 1 2 2 2 2 2 1 1 1 2 1 0 1 1 1 1 1 1 2 2 1 1 1
2 2 3 2 5 4 4 3 2 1 1 1 1 2 2 2 1 1 0 0 1 1 1 2 2 2 2 2 1 1 2 1 0 1 1 1 1 1 0 1 1 1 1 1
4 2 1 3 4 4 4 3 2 2 2 2 2 1 2 2 2 2 2 1 0 1 1 1 0 0 2 2 2 2 1 0 0 0 0 0 1 1 0 0 1 2 3 3
4 6 5 6 6 4 5 4 1 0 1 1 2 2 1 1 2 2 2 1 1 1 0 1 1 1 2 2 2 3 2 1 1 1 1 0 0 0 0 0 1 2 1 1
Wind_Direction
55 77 213 222 203 197 174 176 239 260 244 128 142 164 165 168 170 177 183 186 193 201 190 167 168 163 157 161 162 164 164 165 152 145 156 162 204 219 231 231 231 217 203 197
43 280 244 209 183 169 161 157 266 309 27 127 108 44 136 175 196 197 197 197 197 190 175 173 172 169 170 173 174 169 173 175 175 176 172 167 167 193 218 261 259 239 220 208
189 244 235 148 149 152 209 187 208 216 40 65 87 358 341 210 199 196 203 200 196 195 193 189 184 182 178 183 184 185 185 184 183 172 144 135 102 52 221 273 273 255 235 224
227 266 185 142 212 166 254 230 182 158 112 323 98 276 292 249 240 230 223 209 210 208 202 197 191 187 189 193 186 182 183 182 183 171 165 171 185 206 220 221 242 260 241 232
247 221 176 212 239 179 216 99 113 107 119 64 30 133 291 304 255 246 230 222 219 210 203 196 195 197 195 191 187 188 181 184 181 181 183 182 201 215 217 215 241 261 264 248
252 263 204 215 215 144 127 66 55 49 70 45 285 168 281 244 231 247 232 224 219 211 206 199 191 185 193 190 188 185 183 196 188 189 193 192 199 202 205 223 233 250 258 260
324 315 303 161 72 33 83 88 35 5 9 261 277 185 251 252 228 221 226 222 212 201 195 188 182 184 190 192 194 189 185 205 204 203 207 206 205 202 213 224 229 235 243 248
182 293 285 236 176 172 149 135 154 191 222 276 325 235 254 271 254 225 222 215 196 192 195 194 194 189 193 196 195 190 193 206 208 211 218 215 207 210 225 229 229 232 236 241
178 249 294 276 178 136 130 141 153 131 133 354 288 286 302 290 325 10 20 169 196 204 203 201 200 197 194 194 199 198 193 202 207 211 215 215 210 211 224 232 231 242 248 248
162 220 295 307 65 44 124 140 101 111 137 241 289 276 252 266 268 302 307 251 231 210 209 206 202 200 197 195 195 192 192 196 200 201 211 222 220 218 223 224 230 242 251 254
131 159 306 29 118 181 87 92 103 113 142 156 241 270 233 231 221 217 239 245 211 195 202 203 201 201 198 186 185 189 195 192 193 199 211 227 232 223 222 229 238 247 255 253
129 130 231 264 277 218 142 150 144 150 200 171 184 261 297 234 219 202 223 237 214 199 201 194 189 184 187 194 205 205 204 203 207 206 211 224 233 228 229 243 251 249 254 259
128 113 84 338 340 8 74 127 139 127 121 154 182 259 332 356 318 229 216 227 215 200 206 196 187 195 204 210 216 219 216 211 211 203 207 215 222 227 236 243 250 251 260 269
120 111 164 197 219 210 230 175 144 130 152 193 219 246 299 311 304 291 262 233 207 207 203 203 206 210 214 221 223 220 224 213 202 198 201 210 219 225 235 240 245 247 252 262
93 127 182 216 220 172 183 199 163 169 183 187 225 225 255 259 246 242 239 249 231 241 236 224 220 218 212 220 225 219 220 212 199 196 208 220 222 222 227 233 239 240 242 254
57 122 113 4 17 152 150 256 190 188 177 195 219 252 260 262 201 215 240 248 258 258 254 240 227 220 222 224 222 213 212 203 192 204 218 226 220 224 233 240 241 241 246 256
53 110 112 238 295 51 280 249 205 192 194 174 214 249 291 275 228 216 215 236 255 264 265 251 239 231 226 226 218 214 208 198 193 204 220 222 215 220 231 234 230 239 245 249
139 113 124 137 82 218 244 248 160 158 203 212 236 272 253 245 247 221 208 229 267 285 275 264 252 249 249 232 230 209 198 198 203 210 220 218 216 224 230 228 225 239 247 244
157 140 124 128 173 261 287 249 175 169 252 262 239 291 329 357 24 334 308 271 256 283 295 294 287 266 266 185 212 177 179 192 205 220 223 213 207 211 219 232 239 236 236 247
69 98 119 132 167 222 246 272 218 131 258 276 222 233 334 80 70 275 295 320 318 346 5 8 27 34 29 315 165 166 191 188 212 222 224 208 193 194 203 215 227 223 227 245
56 58 121 155 205 253 262 290 99 149 239 261 221 213 182 187 223 260 286 329 358 15 24 30 44 44 6 342 138 174 194 213 234 224 221 218 208 206 203 197 199 180 180 298
162 147 171 150 186 247 289 96 167 215 236 227 217 207 192 208 291 2 47 68 59 35 25 29 30 5 1 29 73 153 239 260 273 181 200 226 229 225 197 173 169 138 146 128
188 187 185 191 214 250 276 229 248 197 201 226 207 207 165 163 171 50 58 69 52 36 20 21 33 19 4 6 108 206 285 326 13 176 221 243 241 234 188 177 168 142 155 189
269 145 149 242 269 279 297 309 313 274 220 234 187 164 154 180 181 139 161 345 12 7 4 25 40 29 354 343 335 278 293 315 102 197 224 219 212 241 170 191 185 180 206 222
235 177 173 255 280 319 317 304 316 359 39 70 75 120 159 162 173 170 185 224 255 346 350 17 67 17 328 342 345 339 333 61 72 318 203 199 206 192 170 293 276 240 234 219
211 189 182 220 226 207 253 274 293 57 49 71 74 57 55 158 179 170 186 205 195 233 301 335 331 330 325 340 345 342 350 66 107 48 7 352 39 91 169 218 349 353 286 251
Height
1494 1500 1505 1502 1500 1501 1504 1510 1513 1507 1500 1504 1509 1510 1510 1510 1511 1512 1513 1514 1514 1515 1517 1520 1521 1523 1525 1526 1528 1529 1531 1532 1534 1535 1536 1537 1538 1539 1540 1541 1542 1543 1543 1544
1500 1503 1496 1494 1496 1499 1504 1510 1511 1506 1500 1505 1511 1512 1510 1510 1510 1510 1511 1512 1513 1515 1516 1518 1520 1521 1523 1525 1526 1528 1530 1531 1533 1534 1536 1537 1538 1538 1539 1540 1541 1542 1542 1543
1500 1497 1492 1494 1498 1502 1504 1508 1508 1508 1505 1505 1511 1517 1513 1510 1510 1511 1511 1511 1512 1513 1514 1515 1517 1519 1521 1523 1525 1527 1529 1530 1532 1534 1535 1536 1537 1537 1538 1539 1539 1540 1541 1542
1496 1492 1492 1495 1498 1499 1507 1498 1500 1504 1513 1522 1517 1533 1517 1512 1511 1510 1509 1509 1509 1510 1512 1513 1515 1517 1519 1522 1524 1526 1527 1529 1531 1533 1533 1534 1535 1535 1536 1537 1538 1539 1540 1540
1496 1491 1492 1496 1495 1494 1499 1495 1500 1505 1514 1524 1522 1531 1525 1513 1513 1509 1507 1507 1507 1508 1510 1511 1513 1516 1518 1521 1522 1524 1525 1527 1529 1531 1532 1532 1533 1534 1535 1536 1536 1537 1538 1538
1491 1488 1489 1490 1489 1491 1494 1501 1507 1515 1523 1536 1528 1532 1529 1517 1510 1505 1503 1504 1505 1506 1508 1509 1512 1514 1516 1519 1520 1522 1523 1525 1527 1528 1530 1530 1531 1532 1533 1534 1534 1535 1536 1536
1497 1491 1487 1487 1492 1494 1498 1515 1535 1537 1545 1542 1528 1530 1526 1506 1501 1501 1500 1501 1502 1504 1506 1507 1509 1511 1513 1515 1517 1519 1520 1523 1524 1526 1527 1528 1529 1530 1531 1531 1532 1532 1533 1533
1508 1508 1490 1487 1490 1497 1502 1511 1535 1546 1549 1542 1530 1530 1515 1500 1499 1498 1499 1499 1500 1502 1503 1505 1506 1508 1510 1513 1515 1516 1518 1520 1521 1523 1524 1525 1527 1528 1528 1529 1529 1530 1530 1531
1507 1506 1488 1485 1485 1490 1502 1511 1513 1532 1538 1543 1536 1524 1510 1499 1498 1498 1498 1498 1499 1500 1501 1502 1504 1506 1508 1510 1512 1514 1515 1517 1519 1520 1522 1523 1524 1525 1525 1526 1526 1527 1527 1528
1494 1503 1492 1487 1486 1490 1494 1505 1520 1532 1546 1548 1537 1529 1521 1505 1501 1498 1498 1497 1497 1499 1500 1501 1502 1504 1506 1508 1510 1512 1513 1514 1516 1517 1519 1520 1521 1522 1522 1523 1523 1523 1524 1524
1490 1502 1499 1493 1495 1499 1500 1507 1518 1531 1533 1545 1546 1531 1503 1501 1498 1498 1497 1496 1496 1497 1498 1499 1500 1503 1504 1506 1508 1509 1511 1512 1513 1514 1516 1517 1518 1518 1519 1519 1519 1520 1521 1521
1493 1502 1509 1500 1492 1491 1493 1501 1512 1524 1532 1536 1539 1527 1495 1495 1494 1495 1495 1495 1495 1496 1497 1498 1499 1501 1503 1504 1505 1507 1508 1509 1510 1511 1512 1513 1514 1515 1515 1516 1516 1516 1517 1517
1492 1504 1516 1513 1507 1498 1497 1500 1505 1514 1527 1537 1537 1521 1496 1495 1494 1494 1494 1493 1494 1495 1496 1497 1498 1499 1500 1502 1503 1504 1505 1506 1507 1508 1509 1510 1511 1511 1511 1512 1512 1512 1513 1513
1487 1502 1510 1516 1511 1502 1501 1500 1503 1511 1524 1530 1524 1514 1501 1497 1495 1493 1492 1492 1493 1494 1494 1495 1496 1497 1498 1500 1501 1502 1503 1503 1504 1505 1506 1506 1507 1507 1507 1508 1508 1508 1508 1508
1488 1501 1501 1500 1497 1497 1498 1498 1501 1504 1509 1515 1511 1509 1500 1495 1493 1492 1492 1492 1492 1493 1493 1493 1493 1494 1495 1497 1498 1499 1499 1500 1501 1502 1502 1503 1503 1503 1504 1504 1504 1504 1504 1504
1493 1500 1500 1501 1497 1497 1499 1497 1497 1499 1502 1504 1503 1503 1494 1492 1492 1492 1492 1491 1491 1491 1491 1491 1491 1492 1492 1493 1494 1495 1496 1497 1498 1498 1499 1500 1500 1500 1500 1500 1500 1500 1500 1500
1499 1501 1507 1510 1503 1499 1507 1499 1497 1498 1498 1500 1503 1498 1492 1492 1490 1490 1490 1490 1489 1489 1489 1489 1489 1489 1490 1491 1492 1493 1493 1494 1494 1495 1495 1497 1497 1497 1496 1497 1496 1496 1496 1496
1498 1505 1512 1514 1509 1516 1503 1492 1492 1495 1495 1495 1494 1492 1490 1489 1488 1488 1489 1488 1488 1488 1488 1488 1488 1488 1488 1489 1490 1490 1491 1491 1492 1491 1492 1492 1493 1493 1493 1493 1493 1493 1493 1493
1493 1501 1512 1518 1517 1511 1498 1491 1492 1495 1496 1492 1492 1490 1489 1488 1488 1489 1488 1488 1488 1487 1487 1487 1487 1487 1487 1487 1488 1488 1488 1489 1489 1489 1488 1489 1489 1490 1490 1490 1490 1490 1490 1490
1495 1498 1508 1515 1514 1516 1500 1488 1487 1491 1498 1490 1489 1489 1489 1488 1492 1489 1487 1487 1487 1487 1486 1486 1486 1486 1486 1486 1486 1486 1486 1486 1486 1485 1485 1486 1486 1487 1486 1486 1487 1487 1487 1487
1503 1506 1510 1513 1512 1505 1492 1487 1487 1501 1499 1488 1487 1487 1488 1488 1488 1487 1486 1486 1486 1486 1485 1485 1485 1484 1484 1484 1484 1484 1484 1483 1483 1484 1484 1484 1484 1484 1484 1484 1484 1484 1484 1485
1503 1507 1511 1513 1512 1506 1488 1487 1491 1491 1486 1486 1485 1486 1486 1486 1486 1485 1484 1484 1484 1485 1484 1484 1484 1483 1483 1483 1482 1482 1481 1482 1482 1482 1482 1482 1482 1482 1482 1482 1482 1482 1483 1483
1499 1499 1501 1502 1500 1490 1487 1486 1486 1485 1485 1484 1484 1484 1485 1485 1485 1484 1484 1484 1484 1484 1484 1484 1483 1482 1482 1482 1481 1480 1480 1480 1480 1480 1480 1480 1480 1480 1480 1480 1480 1480 1480 1481
1495 1494 1496 1496 1491 1488 1486 1485 1485 1484 1484 1483 1483 1483 1483 1483 1484 1484 1484 1484 1483 1483 1483 1483 1482 1481 1481 1481 1481 1480 1479 1479 1479 1479 1479 1478 1478 1479 1479 1478 1478 1478 1478 1478
1492 1493 1494 1493 1489 1486 1485 1484 1484 1483 1483 1482 1482 1483 1483 1483 1483 1483 1484 1484 1483 1483 1483 1483 1482 1482 1481 1480 1480 1479 1478 1478 1477 1477 1477 1477 1477 1477 1477 1476 1477 1477 1476 1476
1488 1489 1491 1490 1486 1486 1484 1484 1483 1482 1482 1481 1481 1481 1482 1482 1482 1482 1482 1483 1482 1483 1482 1482 1482 1481 1481 1480 1479 1479 1478 1477 1476 1476 1475 1476 1476 1475 1475 1475 1475 1475 1475 1475